This demonstration page uses our WeatherBlox Daily Observations layout. Learn more.

Left ArrowRight Arrow

44.89941, -97.11507

Hourly Observations for May 3, 2022

Temp ( °F °C ) Dew Point ( °F °C ) Humidity (%) Winds ( mph kmh ) Pressure ( in mb ) Visibility ( mi km ) Precip ( " mm )
12:08 am 00:08 Cloudy 36 2.2 32 0 86 86 N 14 22 30.12 1020 10 16 0.00 0.00
12:53 am 00:53 Cloudy 36 2.2 32 0 86 86 N 10 17 30.10 1019 10 16 0.00 0.00
1:53 am 01:53 Cloudy 35 1.7 32 0 89 89 N 12 19 30.10 1019 10 16 0.00 0.00
2:53 am 02:53 Mostly Cloudy 33 0.6 31 -0.6 92 92 N 8 13 30.10 1019 10 16 0.00 0.00
3:53 am 03:53 Cloudy 35 1.7 32 0 89 89 N 9 15 30.11 1020 10 16 0.00 0.00
4:51 am 04:51 Cloudy 36 2 32 0 87 87 NNE 13 20 30.15 1021 10 16 0.00 0.00
4:53 am 04:53 Cloudy 36 2.2 32 0 86 86 NNE 12 19 30.11 1020 10 16 0.00 0.00
5:53 am 05:53 Cloudy 35 1.7 31 -0.6 85 85 NNE 12 19 30.12 1020 10 16 0.00 0.00
6:53 am 06:53 Cloudy 35 1.7 32 0 89 89 NNE 10 17 30.11 1020 10 16 0.00 0.00
7:50 am 07:50 Cloudy 37 3 34 1 87 87 NNE 12 19 30.14 1021 10 16 0.00 0.00
7:53 am 07:53 Cloudy 37 2.8 33 0.6 86 86 NE 10 17 30.13 1020 10 16 0.00 0.00
8:53 am 08:53 Cloudy 40 4.4 32 0 73 73 NNE 14 22 30.14 1021 10 16 0.00 0.00
9:53 am 09:53 Mostly Cloudy 43 6.1 31 -0.6 63 63 NE 14 22 30.14 1021 10 16 0.00 0.00
10:53 am 10:53 Cloudy 45 7.2 31 -0.6 58 58 E 9 15 30.14 1021 10 16 0.00 0.00
11:53 am 11:53 Mostly Cloudy 46 7.8 32 0 58 58 E 8 13 30.14 1021 10 16 0.00 0.00
12:14 pm 12:14 Mostly Cloudy 47 8.3 32 0 56 56 E 9 15 30.12 1020 10 16 0.00 0.00
12:53 pm 12:53 Mostly Cloudy 49 9.4 33 0.6 55 55 VRB 5 7 30.14 1021 10 16 0.00 0.00
1:53 pm 13:53 Mostly Sunny 50 10 34 1.1 54 54 VRB 5 7 30.14 1021 10 16 0.00 0.00
2:53 pm 14:53 Mostly Sunny 52 11.1 34 1.1 50 50 VRB 7 11 30.13 1020 10 16 0.00 0.00
3:53 pm 15:53 Mostly Sunny 54 12.2 34 1.1 47 47 NNE 5 7 30.11 1020 10 16 0.00 0.00
4:53 pm 16:53 Mostly Sunny 54 12.2 35 1.7 49 49 NE 9 15 30.10 1019 10 16 0.00 0.00
5:53 pm 17:53 Sunny 54 12.2 34 1.1 47 47 ESE 8 13 30.10 1019 10 16 0.00 0.00
6:53 pm 18:53 Sunny 53 11.7 34 1.1 48 48 ESE 8 13 30.11 1020 10 16 0.00 0.00
7:53 pm 19:53 Sunny 51 10.6 35 1.7 54 54 E 8 13 30.10 1019 10 16 0.00 0.00
8:53 pm 20:53 Clear 47 8.3 35 1.7 63 63 ENE 7 11 30.11 1020 10 16 0.00 0.00
9:53 pm 21:53 Clear 46 7.8 35 1.7 66 66 ENE 5 7 30.13 1020 10 16 0.00 0.00
10:53 pm 22:53 Clear 44 6.7 34 1.1 68 68 ENE 3 6 30.14 1021 10 16 0.00 0.00
11:53 pm 23:53 Clear 42 5.6 34 1.1 73 73 Calm 30.15 1021 10 16 0.00 0.00

Powered by AerisWeather